Simultaneous Nadir Overpasses (SNOs) Predictions

Prediction of SNOs between NOAA-20 and AQUA Satellite Orbit:

Table of predicted SNOs for the next 14.0 days since TLE Epoch: 2/21/2020
Index Date (NOAA-20) Time (NOAA-20) Lat,Lon (NOAA-20) SZA (NOAA-20 ) Date (AQUA) Time (AQUA) Lat,Lon (AQUA) SZA (AQUA ) Distance(km) Time Diff (sec)
1 02/22/2020 13:39:59 74.89,-149.18 109.22 02/22/2020 13:40:59 74.89,-149.16 109.16 0.69 60
2 02/22/2020 14:30:16 -76.24, 22.40 72.41 02/22/2020 14:30:00 -76.23, 22.34 72.37 2.02 16
3 02/25/2020 05:56:42 75.53, -31.50 107.48 02/25/2020 05:57:17 75.53, -31.56 107.47 1.83 35
4 02/25/2020 06:47:10 -76.36, 138.60 73.53 02/25/2020 06:46:28 -76.36, 138.64 73.51 0.99 42
5 02/27/2020 22:13:35 75.70, 84.80 106.28 02/27/2020 22:13:44 75.70, 84.83 106.27 0.87 9
6 02/27/2020 23:03:55 -76.87,-103.66 75.18 02/27/2020 23:02:48 -76.86,-103.75 75.10 2.60 67
7 03/01/2020 13:40:03 -74.93, 30.93 73.82 03/01/2020 13:41:04 -74.93, 30.92 73.87 0.36 61
8 03/01/2020 14:30:17 76.32,-157.30 104.51 03/01/2020 14:30:01 76.31,-157.41 104.55 2.93 16
9 03/04/2020 05:56:53 -75.24, 147.60 75.22 03/04/2020 05:57:28 -75.24, 147.64 75.26 1.20 35




NCC Satellite Simultaneous Nadir Overpasses (SNOs) Prediction Service
